Overview Statistics Trail Chart Weather Telemetry Raw packets
 

This is the latest recevied weather packets stored in our database for station/object ALANSN-2. If no packets are shown the sender has not sent any weather packets the latest 10 day(s).

<< 84 85 86 87 88 89 90 >>
Time Temp. Humidity Pressure Rain* Wind** Luminosity Snow
1787937720 22.78° C 61% 1032.3 hPa 0 mm - 353 W/m² -
1787937420 22.78° C 60% 1032.5 hPa 0 mm - 639 W/m² -
1787937120 22.22° C 60% 1032.6 hPa 0 mm - 638 W/m² -
1787936819 21.67° C 63% 1032.7 hPa 0 mm - 655 W/m² -
1787936519 21.11° C 63% 1032.5 hPa 0 mm - 617 W/m² -
1787936220 21.11° C 60% 1032.8 hPa 0 mm - 694 W/m² -
1787935920 21.11° C 65% 1032.7 hPa 0 mm - 469 W/m² -
1787935620 21.67° C 64% 1032.8 hPa 0 mm - 619 W/m² -
1787935319 21.67° C 64% 1032.8 hPa 0 mm - 619 W/m² -
1787935018 21.11° C 59% 1033 hPa 0 mm - 553 W/m² -
1787934719 20.56° C 62% 1033 hPa 0 mm - 330 W/m² -
1787934420 20.56° C 62% 1033 hPa 0 mm - 330 W/m² -
1787934118 20.56° C 61% 1032.9 hPa 0 mm - 643 W/m² -
1787933821 20.56° C 67% 1032.8 hPa 0 mm - 737 W/m² -
1787933520 20.56° C 67% 1032.8 hPa 0 mm - 737 W/m² -
1787933220 20.56° C 67% 1032.9 hPa 0 mm - 669 W/m² -
1787932920 20.56° C 65% 1032.8 hPa 0 mm - 792 W/m² -
1787932621 20.56° C 65% 1032.8 hPa 0 mm - 792 W/m² -
1787932320 20.56° C 66% 1033 hPa 0 mm - 807 W/m² -
1787932020 20.56° C 68% 1032.9 hPa 0 mm - 661 W/m² -
1787931717 20.56° C 68% 1032.9 hPa 0 mm - 661 W/m² -
1787931420 20° C 69% 1032.9 hPa 0 mm - 631 W/m² -
1787931120 20° C 68% 1032.7 hPa 0 mm - 593 W/m² -
1787930820 20° C 68% 1032.7 hPa 0 mm - 593 W/m² -
1787930520 20° C 70% 1033.1 hPa 0 mm - 572 W/m² -

* Rain latest hour (hover to see other rain measurements)
** Current wind speed in m/s (hover to see current wind gust speed)